Location: Newark
(52.1031°N, 9.3600°E)
Time: 00:07:33
(UTC+00:00)

nSIGHT-1 - Visible Passes

Search period start: 15 December 2019 00:00
Search period end: 25 December 2019 00:00
Orbit: 325 x 328 km, 51.6° (Epoch: 14 December)

Date Brightness Start Highest point End Pass type
(mag) Time Alt. Az. Time Alt. Az. Time Alt. Az.
15 Dec ? 04:29:46 17° ESE 04:29:46 17° ESE 04:30:44 10° E visible
15 Dec ? 06:00:50 17° WSW 06:02:52 74° S 06:05:38 10° E visible
16 Dec ? 04:46:50 27° ESE 04:46:50 27° ESE 04:48:25 10° E visible
16 Dec ? 06:17:53 12° W 06:20:23 84° S 06:23:10 10° E visible
17 Dec ? 05:03:43 47° ESE 05:03:43 47° ESE 05:05:52 10° E visible
17 Dec ? 06:35:02 10° W 06:37:49 75° S 06:40:35 10° ESE visible
18 Dec ? 05:20:29 82° SSE 05:20:29 82° SSE 05:23:14 10° E visible
19 Dec ? 05:37:07 50° W 05:37:44 79° S 05:40:30 10° E visible
20 Dec ? 04:22:38 13° E 04:22:38 13° E 04:23:00 10° E visible
20 Dec ? 05:53:40 28° W 05:54:54 60° SSW 05:57:38 10° ESE visible
21 Dec ? 04:39:06 20° E 04:39:06 20° E 04:40:06 10° E visible
21 Dec ? 06:10:08 17° W 06:11:55 37° SSW 06:14:30 10° SE visible
22 Dec ? 04:55:30 30° ESE 04:55:30 30° ESE 04:57:06 10° ESE visible
22 Dec ? 06:26:34 10° W 06:28:46 21° SSW 06:30:57 10° SSE visible
23 Dec ? 05:11:50 36° SSE 05:11:50 36° SSE 05:13:53 10° SE visible
23 Dec ? 06:44:31 10° WSW 06:45:24 11° SW 06:46:19 10° SSW visible
24 Dec ? 05:28:08 25° SSW 05:28:08 25° SSW 05:30:18 10° SSE visible
